Back to catalog

STARLINK-11636

AliveCommunicationsVLEO
NORAD 63194·PAYLOAD·🇺🇸 United States

Launched Mar 13, 2025 from Cape Canaveral Space Force Station

Loading…

Next Passes (next 24 hours)

TLE

FreshSource: CelesTrak SupGP

Epoch: Sep 14, 2026, 21:09 UTC

1 63194C 25048M   26257.88173611  .00016804  00000+0  13056-3 0  2572
2 63194  43.0007 259.6651 0001560 257.6341 129.3974 15.70821903    15

Track STARLINK-11636 in real time with AllMySat

Download on the App Store